Location: Krasnoyarskiy Pitomnik
(51.1333°N, 71.6167°E)
Time: 18:41:46
(UTC+00:00)

Vanguard 2 - Pass Details

Date: 29 April 2024
Orbit: 553 x 2914 km, 32.9° (Epoch: 22 May)

Event Time Altitude Azimuth Distance (km) Brightness Sun altitude
Exits shadow 17:20:17 13° 114° (ESE) 4,613 11.0 -19.8°
Drops below altitude 10° 17:22:25 10° 107° (ESE) 5,023 11.3 -20.0°
Sets 17:28:54 0° 92° (E) 6,413 12.0 -20.4°
